McNeal, AZ

9:42 PM MST on September 28, 2016 (GMT -0700)
Bisbee Douglas International

Weather History for KDUG - January, 2014

Change the Weather History Date:

Thursday, January 30, 2014

  Actual Average Record
Temperature  
Mean Temperature 54 °F 47 °F  
Max Temperature 76 °F 64 °F 76 °F (1958)
Min Temperature 31 °F 31 °F 10 °F (1949)
Degree Days  
Heating Degree Days 11 18  
Month to date heating degree days 529 563  
Since 1 July heating degree days 1623 1587  
Cooling Degree Days 0 0  
Month to date cooling degree days 0 0  
Year to date cooling degree days 0 0  
Growing Degree Days 4 (Base 50)    
Moisture  
Dew Point 17 °F    
Average Humidity 24    
Maximum Humidity 36    
Minimum Humidity 12    
Precipitation  
Precipitation 0.00 in 0.02 in 1.10 in (1983)
Month to date precipitation T 0.71  
Year to date precipitation T 0.71  
Sea Level Pressure  
Sea Level Pressure 29.88 in    
Wind  
Wind Speed 10 mph (South)    
Max Wind Speed 25 mph    
Max Gust Speed 36 mph    
Visibility 10 miles    
Events      
T = Trace of Precipitation, MM = Missing Value Source: NWS Daily Summary

Daily Weather History Graph

Daily Weather History Graph

Search for Another Location

Airport or City:

Trip Planner

Search our weather history database for the weather conditions in past years. The results will help you decide how hot, cold, wet, or windy it might be!

Date:

Astronomy

Jan. 30, 2014 Rise Set
Actual Time 7:12 AM MST 5:51 PM MST
Civil Twilight 6:46 AM MST 6:17 PM MST
Nautical Twilight 6:17 AM MST 6:46 PM MST
Astronomical Twilight 5:48 AM MST 7:15 PM MST
Moon 6:43 AM MST (1/30) 6:03 PM MST (1/30)
Length of Visible Light 11h 30m
Length of Day
10h 39m
Waning Crescent, 0% of the Moon is Illuminated
Jan 30
Waning Crescent
Jan 30
New
Feb 6
First Quarter
Feb 14
Full
Feb 22
Last Quarter

Hourly Weather History & Observations

Time (MST) Temp. Windchill Dew Point Humidity Pressure Visibility Wind Dir Wind Speed Gust Speed Precip Events Conditions
12:56 AM 42.1 °F 38.4 °F 7.0 °F 24% 29.94 in 10.0 mi East 5.8 mph - N/A   Clear
1:56 AM 44.1 °F 41.5 °F 10.0 °F 25% 29.92 in 10.0 mi East 4.6 mph - N/A   Clear
2:56 AM 39.0 °F 36.8 °F 9.0 °F 29% 29.92 in 10.0 mi ENE 3.5 mph - N/A   Clear
3:56 AM 39.0 °F 36.8 °F 10.0 °F 30% 29.91 in 10.0 mi ENE 3.5 mph - N/A   Clear
4:56 AM 42.1 °F 40.2 °F 12.0 °F 29% 29.91 in 10.0 mi SE 3.5 mph - N/A   Clear
5:56 AM 39.9 °F 35.8 °F 12.0 °F 32% 29.93 in 10.0 mi SE 5.8 mph - N/A   Clear
6:56 AM 32.0 °F - 9.0 °F 38% 29.97 in 10.0 mi Calm Calm - N/A   Clear
7:56 AM 39.9 °F 35.8 °F 12.0 °F 32% 29.98 in 10.0 mi East 5.8 mph - N/A   Clear
8:56 AM 51.1 °F - 14.0 °F 23% 29.97 in 10.0 mi SE 3.5 mph - N/A   Clear
9:56 AM 61.0 °F - 17.1 °F 18% 29.97 in 10.0 mi SSE 8.1 mph - N/A   Clear
10:56 AM 64.9 °F - 18.0 °F 16% 29.96 in 10.0 mi SSE 6.9 mph - N/A   Clear
11:56 AM 72.0 °F - 18.0 °F 13% 29.90 in 10.0 mi SSW 16.1 mph 20.7 mph N/A   Clear
12:56 PM 73.0 °F - 19.9 °F 14% 29.86 in 10.0 mi SW 16.1 mph 24.2 mph N/A   Clear
1:56 PM 75.0 °F - 21.0 °F 13% 29.81 in 10.0 mi WSW 17.3 mph 25.3 mph N/A   Clear
2:56 PM 75.0 °F - 19.9 °F 13% 29.81 in 10.0 mi SSW 17.3 mph 25.3 mph N/A   Clear
3:56 PM 73.9 °F - 19.9 °F 13% 29.80 in 10.0 mi West 21.9 mph 27.6 mph N/A   Clear
4:56 PM 72.0 °F - 21.0 °F 15% 29.80 in 10.0 mi SW 17.3 mph 27.6 mph N/A   Clear
5:56 PM 66.9 °F - 21.0 °F 17% 29.82 in 10.0 mi SW 13.8 mph - N/A   Clear
6:56 PM 63.0 °F - 19.9 °F 19% 29.86 in 10.0 mi WSW 12.7 mph - N/A   Clear
7:56 PM 63.0 °F - 21.9 °F 21% 29.85 in 10.0 mi WSW 12.7 mph 23.0 mph N/A   Clear
8:56 PM 61.0 °F - 23.0 °F 23% 29.84 in 10.0 mi SW 17.3 mph - N/A   Clear
9:56 PM 59.0 °F - 24.1 °F 26% 29.81 in 10.0 mi WSW 18.4 mph - N/A   Clear
10:56 PM 57.9 °F - 25.0 °F 28% 29.81 in 10.0 mi West 15.0 mph - N/A   Clear
11:56 PM 55.9 °F - 25.0 °F 30% 29.80 in 10.0 mi SSE 3.5 mph - N/A   Clear